Location: Platte
(43.3870°N, 98.8440°W)
Time: 19:00:09
(UTC-05:00)

Landsat 7 - Visible Passes

Search period start: 28 May 2016 00:00
Search period end: 07 June 2016 00:00
Orbit: 701 x 704 km, 98.2° (Epoch: 28 May)

Date Brightness Start Highest point End Pass type
(mag) Time Alt. Az. Time Alt. Az. Time Alt. Az.
28 May 6.2 00:45:23 11° WSW 00:47:03 13° W 00:49:07 10° WNW visible
28 May 5.3 22:10:50 11° ESE 22:14:09 22° ENE 22:17:49 10° NNE visible
28 May 4.6 23:49:44 29° SSW 23:51:37 43° W 23:56:10 10° NNW visible
29 May 4.1 22:54:04 25° SE 22:56:38 55° ENE 23:01:17 10° N visible
30 May 5.9 00:32:57 14° WSW 00:34:42 17° W 00:37:46 10° NW visible
30 May 5.6 21:58:57 10° ESE 22:02:04 18° ENE 22:05:12 10° NNE visible
30 May 4.2 23:37:17 31° SSW 23:39:22 57° W 23:44:05 10° NNW visible
31 May 4.5 22:41:37 20° SE 22:44:28 42° ENE 22:48:58 10° N visible
01 Jun 5.6 00:20:30 18° SW 00:22:22 22° W 00:26:04 10° NW visible
01 Jun 5.9 21:47:39 10° E 21:50:02 14° ENE 21:52:24 10° NNE visible
01 Jun 3.9 23:24:51 31° S 23:27:08 76° WSW 23:31:55 10° NNW visible
02 Jun 4.8 22:29:12 16° ESE 22:32:20 32° ENE 22:36:34 10° N visible
03 Jun 5.3 00:08:05 21° SW 00:10:04 28° W 00:14:12 10° NW visible
03 Jun 3.8 23:12:25 28° SSE 23:14:56 83° ENE 23:19:43 10° NNW visible
04 Jun 6.3 00:52:07 10° WSW 00:53:16 11° W 00:54:25 10° WNW visible
04 Jun 5.2 22:16:46 12° ESE 22:20:14 25° ENE 22:24:06 10° N visible
04 Jun 4.9 23:55:39 25° SSW 23:57:46 37° W 00:02:12 10° NNW visible
05 Jun 3.9 23:00:00 24° SSE 23:02:44 63° ENE 23:07:28 10° N visible
06 Jun 6.1 00:38:53 12° WSW 00:40:54 15° W 00:43:31 10° WNW visible
06 Jun 5.5 22:04:44 10° ESE 22:08:08 20° ENE 22:11:33 10° NNE visible
06 Jun 4.4 23:43:13 27° SSW 23:45:31 49° W 23:50:09 10° NNW visible
